EW4786 Weather Reports


time (UTC)temp
F
wind
direction
speed
knots
gust
knots
rain 1hr
in
rain 24hr
in
rain mn
in
humidity
%
barometer
mb
20260906203326 79 221 0.9 5.2 0.00 0.00 0.00 60 1020.4
20260906202816 78 235 1.7 7.8 0.00 0.00 0.00 62 1020.4
20260906202324 78 256 3.5 7.8 0.00 0.00 0.00 57 1020.5
20260906201845 79 225 3.5 7.8 0.00 0.00 0.00 57 1020.3
20260906201314 79 235 0.9 7.8 0.00 0.00 0.00 62 1020.2
20260906200827 79 156 3.5 7.8 0.00 0.00 0.00 60 1020.3
20260906200320 78 311 0.0 4.3 0.00 0.00 0.00 62 1020.3
20260906195849 77 249 0.9 7.0 0.00 0.00 0.00 60 1020.4
20260906195318 77 239 4.3 7.8 0.00 0.00 0.00 59 1020.4
20260906194828 77 219 5.2 7.8 0.00 0.00 0.00 58 1020.4
20260906194320 77 238 1.7 9.6 0.00 0.00 0.00 62 1020.5
20260906193831 77 252 1.7 9.6 0.00 0.00 0.00 61 1020.5
20260906193318 77 154 3.5 9.6 0.00 0.00 0.00 61 1020.6
20260906192830 78 259 3.5 7.0 0.00 0.00 0.00 59 1020.7
20260906192321 78 216 2.6 6.1 0.00 0.00 0.00 59 1020.8
20260906191824 78 247 1.7 7.8 0.00 0.00 0.00 60 1020.8
20260906191315 78 252 3.5 7.8 0.00 0.00 0.00 61 1021.0
20260906190846 77 241 4.3 9.6 0.00 0.00 0.00 59 1020.9
20260906190315 78 253 0.9 9.6 0.00 0.00 0.00 61 1020.9
20260906185822 77 226 0.9 9.6 0.00 0.00 0.00 60 1020.9
20260906185312 77 221 6.1 9.6 0.00 0.00 0.00 57 1021.0
20260906184823 77 235 5.2 9.6 0.00 0.00 0.00 58 1020.9
20260906184334 76 252 4.3 8.7 0.00 0.00 0.00 58 1021.0
20260906183844 76 219 2.6 8.7 0.00 0.00 0.00 60 1020.9
20260906183313 76 234 5.2 7.8 0.00 0.00 0.00 58 1020.9
20260906182846 76 271 5.2 7.8 0.00 0.00 0.00 59 1020.9
20260906182337 75 277 4.3 7.8 0.00 0.00 0.00 58 1020.9
20260906181816 76 326 0.9 6.1 0.00 0.00 0.00 60 1020.9
20260906181328 76 262 3.5 7.8 0.00 0.00 0.00 60 1020.9
20260906180820 75 281 3.5 7.8 0.00 0.00 0.00 60 1020.9
20260906180324 76 262 4.3 7.0 0.00 0.00 0.00 58 1021.0
20260906175836 76 272 4.3 6.1 0.00 0.00 0.00 59 1020.9
20260906175324 75 278 3.5 6.1 0.00 0.00 0.00 60 1020.9
20260906174816 75 221 4.3 6.1 0.00 0.00 0.00 60 1020.9
20260906174327 75 262 3.5 6.1 0.00 0.00 0.00 62 1020.8
20260906173819 75 248 3.5 4.3 0.00 0.00 0.00 61 1020.9
20260906173330 75 247 1.7 4.3 0.00 0.00 0.00 63 1020.9
20260906172843 75 211 1.7 6.1 0.00 0.00 0.00 67 1021.0
20260906172333 75 231 1.7 6.1 0.00 0.00 0.00 63 1020.9
20260906171819 76 82 1.7 6.1 0.00 0.00 0.00 61 1021.0
20260906171349 76 229 1.7 6.1 0.00 0.00 0.00 59 1021.0
20260906170820 77 226 1.7 4.3 0.00 0.00 0.00 61 1021.0
20260906170313 76 48 0.0 4.3 0.00 0.00 0.00 56 1021.0
20260906165825 76 176 0.0 5.2 0.00 0.00 0.00 62 1021.2
20260906165316 76 223 3.5 6.1 0.00 0.00 0.00 58 1021.3
20260906164828 75 219 3.5 5.2 0.00 0.00 0.00 61 1021.4
20260906164318 75 250 2.6 5.2 0.00 0.00 0.00 64 1021.5
20260906163829 75 236 0.0 4.3 0.00 0.00 0.00 65 1021.5
20260906163323 74 270 1.7 4.3 0.00 0.00 0.00 64 1021.6
20260906162827 74 263 0.9 4.3 0.00 0.00 0.00 66 1021.5
20260906162319 74 231 2.6 5.2 0.00 0.00 0.00 64 1021.5
20260906161834 74 250 3.5 4.3 0.00 0.00 0.00 66 1021.5
20260906161405 73 352 0.9 2.6 0.00 0.00 0.00 67 1021.5
20260906160822 73 343 0.9 3.5 0.00 0.00 0.00 66 1021.5
20260906160333 73 218 0.0 4.3 0.00 0.00 0.00 66 1021.5
20260906155825 73 233 2.6 4.3 0.00 0.00 0.00 66 1021.6
20260906155316 72 18 0.9 2.6 0.00 0.00 0.00 70 1021.6
20260906154828 72 339 0.0 5.2 0.00 0.00 0.00 71 1021.7
20260906154319 72 257 1.7 5.2 0.00 0.00 0.00 70 1021.7
20260906153850 71 200 0.9 2.6 0.00 0.00 0.00 72 1021.7
20260906153320 71 243 0.9 3.5 0.00 0.00 0.00 73 1021.7
20260906152829 71 276 2.6 3.5 0.00 0.00 0.00 75 1021.7
20260906152321 71 247 0.0 1.7 0.00 0.00 0.00 75 1021.8
20260906151838 71 279 0.0 3.5 0.00 0.00 0.00 75 1021.8
20260906151318 70 255 0.9 2.6 0.00 0.00 0.00 78 1021.8
20260906150849 70 215 1.7 3.5 0.00 0.00 0.00 78 1021.8
20260906150319 70 269 1.7 3.5 0.00 0.00 0.00 78 1021.8
20260906145827 70 218 1.7 3.5 0.00 0.00 0.00 80 1021.7
20260906145406 69 254 0.0 1.7 0.00 0.00 0.00 83 1021.8
20260906144821 69 280 0.9 2.6 0.00 0.00 0.00 82 1021.7
20260906144328 68 272 0.9 2.6 0.00 0.00 0.00 83 1021.6
20260906143821 68 267 0.9 1.7 0.00 0.00 0.00 84 1021.6
20260906143352 67 261 0.0 0.0 0.00 0.00 0.00 85 1021.7
20260906142820 67 270 0.0 0.0 0.00 0.00 0.00 86 1021.6
20260906142321 66 269 0.0 0.0 0.00 0.00 0.00 86 1021.7
20260906141816 65 281 0.0 0.0 0.00 0.00 0.00 88 1021.7
20260906141329 65 288 0.0 0.0 0.00 0.00 0.00 88 1021.8
20260906140835 64 288 0.0 0.0 0.00 0.00 0.00 89 1021.7
20260906140326 64 293 0.0 0.0 0.00 0.00 0.00 90 1021.6
20260906135816 63 1 0.0 0.0 0.00 0.00 0.00 91 1021.7
20260906135325 62 346 0.0 0.0 0.00 0.00 0.00 92 1021.6
20260906134818 61 21 0.0 0.0 0.00 0.00 0.00 93 1021.5
20260906134342 61 21 0.0 0.0 0.00 0.00 0.00 94 1021.7
20260906133851 60 30 0.0 0.0 0.00 0.00 0.00 95 1021.6
20260906133322 59 30 0.0 0.0 0.00 0.00 0.00 96 1021.6
20260906132826 58 30 0.0 0.0 0.00 0.00 0.00 96 1021.5
20260906132319 58 30 0.0 0.0 0.00 0.00 0.00 97 1021.6
20260906131822 57 30 0.0 0.0 0.00 0.00 0.00 97 1021.6
20260906131327 57 30 0.0 0.0 0.00 0.00 0.00 97 1021.6
20260906130819 56 30 0.0 0.0 0.00 0.00 0.00 97 1021.6
20260906130409 56 30 0.0 0.0 0.00 0.00 0.00 97 1021.7
20260906125817 55 30 0.0 0.0 0.00 0.00 0.00 98 1021.7
20260906125329 55 30 0.0 0.0 0.00 0.00 0.00 98 1021.6
20260906124820 54 30 0.0 0.0 0.00 0.00 0.00 98 1021.5
20260906124312 54 30 0.0 0.0 0.00 0.00 0.00 98 1021.6
20260906123823 53 30 0.0 0.0 0.00 0.00 0.00 98 1021.4
20260906123315 52 30 0.0 0.0 0.00 0.00 0.00 98 1021.4
20260906122825 52 30 0.0 0.0 0.00 0.00 0.00 98 1021.4
20260906122317 51 30 0.0 0.0 0.00 0.00 0.00 98 1021.4
20260906121818 51 30 0.0 0.0 0.00 0.00 0.00 98 1021.4
20260906121324 51 30 0.0 0.0 0.00 0.00 0.00 98 1021.3
20260906120817 50 30 0.0 0.0 0.00 0.00 0.00 98 1021.3
20260906120342 50 30 0.0 0.0 0.00 0.00 0.00 97 1021.3
20260906115826 50 30 0.0 0.0 0.00 0.00 0.00 97 1021.3
20260906115318 49 30 0.0 0.0 0.00 0.00 0.00 97 1021.3
20260906114812 50 30 0.0 0.0 0.00 0.00 0.00 97 1021.3
20260906114318 49 30 0.0 0.0 0.00 0.00 0.00 97 1021.1
20260906113843 48 30 0.0 0.0 0.00 0.00 0.00 97 1021.1
20260906113334 48 30 0.0 0.0 0.00 0.00 0.00 97 1021.0
20260906112845 49 30 0.0 0.0 0.00 0.00 0.00 97 1021.0
20260906112315 49 30 0.0 0.0 0.00 0.00 0.00 97 1020.9
20260906111814 48 30 0.0 0.0 0.00 0.00 0.00 97 1020.9
20260906111326 48 30 0.0 0.0 0.00 0.00 0.00 97 1020.9
20260906110820 48 30 0.0 0.0 0.00 0.00 0.00 97 1020.8
20260906110353 49 30 0.0 0.0 0.00 0.00 0.00 97 1020.8
20260906105843 49 30 0.0 0.0 0.00 0.00 0.00 97 1020.9
20260906105348 49 30 0.0 0.0 0.00 0.00 0.00 97 1020.8
20260906104834 49 30 0.0 0.0 0.00 0.00 0.00 97 1020.7
20260906104350 49 30 0.0 0.0 0.00 0.00 0.00 97 1020.8
20260906103841 49 30 0.0 0.0 0.00 0.00 0.00 97 1020.7
20260906103313 49 30 0.0 0.0 0.00 0.00 0.00 97 1020.7
20260906102846 49 30 0.0 0.0 0.00 0.00 0.00 97 1020.6
20260906102315 49 30 0.0 0.0 0.00 0.00 0.00 97 1020.7
20260906101814 49 30 0.0 0.0 0.00 0.00 0.00 97 1020.7
20260906101327 49 30 0.0 0.0 0.00 0.00 0.00 97 1020.6
20260906100821 49 30 0.0 0.0 0.00 0.00 0.00 97 1020.5
20260906100313 49 30 0.0 0.0 0.00 0.00 0.00 97 1020.6
20260906095823 49 30 0.0 0.0 0.00 0.00 0.00 97 1020.6
20260906095315 49 30 0.0 0.0 0.00 0.00 0.00 97 1020.6
20260906094826 49 30 0.0 0.0 0.00 0.00 0.00 97 1020.5
20260906094337 49 30 0.0 0.0 0.00 0.00 0.00 97 1020.6
20260906093825 49 30 0.0 0.0 0.00 0.00 0.00 96 1020.7
20260906093315 50 30 0.0 0.0 0.00 0.00 0.00 97 1020.7
20260906092836 50 30 0.0 0.0 0.00 0.00 0.00 96 1020.7
20260906092321 50 30 0.0 0.0 0.00 0.00 0.00 97 1020.6
20260906091336 50 30 0.0 0.0 0.00 0.00 0.00 97 1020.5
20260906090828 50 30 0.0 0.0 0.00 0.00 0.00 97 1020.6
20260906090333 50 30 0.0 0.0 0.00 0.00 0.00 97 1020.5
20260906085838 50 30 0.0 0.0 0.00 0.00 0.00 97 1020.6
20260906085322 50 30 0.0 0.0 0.00 0.00 0.00 97 1020.5
20260906084816 50 30 0.0 0.0 0.00 0.00 0.00 97 1020.5
20260906084328 50 30 0.0 0.0 0.00 0.00 0.00 97 1020.5
20260906083820 50 30 0.0 0.0 0.00 0.00 0.00 96 1020.5
20260906083345 50 30 0.0 0.0 0.00 0.00 0.00 96 1020.5
20260906082817 50 30 0.0 0.0 0.00 0.00 0.00 96 1020.3
20260906082324 51 30 0.0 0.0 0.00 0.00 0.00 96 1020.4
20260906081821 51 30 0.0 0.0 0.00 0.00 0.00 96 1020.2
20260906081314 51 30 0.0 0.0 0.00 0.00 0.00 96 1020.3
20260906080843 51 30 0.0 0.0 0.00 0.00 0.00 96 1020.2
20260906080333 51 30 0.0 0.0 0.00 0.00 0.00 96 1020.2
20260906075837 51 30 0.0 0.0 0.00 0.00 0.00 96 1020.1
20260906075329 52 30 0.0 0.0 0.00 0.00 0.00 96 1020.1
20260906074820 52 30 0.0 0.0 0.00 0.00 0.00 96 1020.1
20260906074326 52 30 0.0 0.0 0.00 0.00 0.00 96 1020.1
20260906073819 52 30 0.0 0.0 0.00 0.00 0.00 96 1020.0
20260906073324 52 30 0.0 0.0 0.00 0.00 0.00 96 1020.1
20260906072834 52 30 0.0 0.0 0.00 0.00 0.00 96 1020.1
20260906072325 52 30 0.0 0.0 0.00 0.00 0.00 96 1019.9
20260906071820 52 30 0.0 0.0 0.00 0.00 0.00 96 1020.0
20260906071312 52 30 0.0 0.0 0.00 0.00 0.00 96 1020.1
20260906070817 52 30 0.0 0.0 0.00 0.00 0.00 95 1020.1
20260906070329 52 30 0.0 0.0 0.00 0.00 0.00 95 1020.0
20260906065813 53 30 0.0 0.0 0.00 0.00 0.00 95 1020.0
20260906065325 53 30 0.0 0.0 0.00 0.00 0.00 96 1020.1
20260906064817 52 30 0.0 0.0 0.00 0.00 0.00 95 1020.0
20260906064316 53 30 0.0 0.0 0.00 0.00 0.00 95 1019.8
20260906063822 53 30 0.0 0.0 0.00 0.00 0.00 95 1019.8
20260906063314 53 30 0.0 0.0 0.00 0.00 0.00 95 1019.8
20260906062827 53 30 0.0 0.0 0.00 0.00 0.00 94 1019.7
20260906062319 53 30 0.0 0.0 0.00 0.00 0.00 94 1019.8
20260906061819 54 30 0.0 0.0 0.00 0.00 0.00 94 1019.8
20260906061313 54 30 0.0 0.0 0.00 0.00 0.00 94 1019.8
20260906060825 54 30 0.0 0.0 0.00 0.00 0.00 94 1019.7
20260906060318 55 30 0.0 0.0 0.00 0.00 0.00 94 1019.8
20260906055823 55 30 0.0 0.0 0.00 0.00 0.00 95 1019.7
20260906055336 55 30 0.0 0.0 0.00 0.00 0.00 95 1019.6
20260906054821 55 30 0.0 0.0 0.00 0.00 0.00 95 1019.6
20260906054314 55 30 0.0 0.0 0.00 0.00 0.00 96 1019.7
20260906053836 54 30 0.0 0.0 0.00 0.00 0.00 96 1019.6
20260906053328 54 30 0.0 0.0 0.00 0.00 0.00 95 1019.6
20260906052841 54 30 0.0 0.0 0.00 0.00 0.00 95 1019.6
20260906052313 55 30 0.0 0.0 0.00 0.00 0.00 95 1019.6
20260906051815 55 30 0.0 0.0 0.00 0.00 0.00 95 1019.6
20260906051321 55 30 0.0 0.0 0.00 0.00 0.00 95 1019.6
20260906050813 55 30 0.0 0.0 0.00 0.00 0.00 95 1019.6
20260906050325 55 30 0.0 0.0 0.00 0.00 0.00 95 1019.6
20260906045816 56 30 0.0 0.0 0.00 0.00 0.00 95 1019.6
20260906045323 56 30 0.0 0.0 0.00 0.00 0.00 95 1019.6
20260906044815 56 30 0.0 0.0 0.00 0.00 0.00 95 1019.6
20260906044326 55 30 0.0 0.0 0.00 0.00 0.00 95 1019.6
20260906043814 55 30 0.0 0.0 0.00 0.00 0.00 94 1019.5
20260906043326 56 30 0.0 0.0 0.00 0.00 0.00 95 1019.4
20260906042817 56 30 0.0 0.0 0.00 0.00 0.00 95 1019.4
20260906042320 56 30 0.0 0.0 0.00 0.00 0.00 95 1019.3
20260906041822 56 30 0.0 0.0 0.00 0.00 0.00 95 1019.2
20260906041315 56 30 0.0 0.0 0.00 0.00 0.00 95 1019.0
20260906040828 56 30 0.0 0.0 0.00 0.00 0.00 94 1019.1
20260906040358 56 30 0.0 0.0 0.00 0.00 0.00 94 1019.1
20260906035819 56 30 0.0 0.0 0.00 0.00 0.00 94 1019.2
20260906035331 56 30 0.0 0.0 0.00 0.00 0.00 94 1019.2
20260906034822 57 30 0.0 0.0 0.00 0.00 0.00 93 1019.2
20260906034314 57 30 0.0 0.0 0.00 0.00 0.00 93 1019.2
20260906033819 57 30 0.0 0.0 0.00 0.00 0.00 94 1019.2
20260906033330 58 30 0.0 0.0 0.00 0.00 0.00 93 1019.2
20260906032824 58 18 0.0 0.0 0.00 0.00 0.00 94 1019.1
20260906032315 58 18 0.0 0.0 0.00 0.00 0.00 94 1019.2
20260906031836 58 18 0.0 0.0 0.00 0.00 0.00 93 1019.2
20260906031339 58 18 0.0 0.0 0.00 0.00 0.00 93 1019.1
20260906030850 58 18 0.0 0.0 0.00 0.00 0.00 93 1019.1
20260906030321 58 18 0.0 0.0 0.00 0.00 0.00 93 1019.1
20260906025828 58 18 0.0 0.0 0.00 0.00 0.00 92 1019.0
20260906025320 59 18 0.0 0.0 0.00 0.00 0.00 92 1019.0
20260906024825 59 18 0.0 0.0 0.00 0.00 0.00 91 1019.0
20260906024317 59 18 0.0 0.0 0.00 0.00 0.00 91 1018.9
20260906023846 59 18 0.0 0.0 0.00 0.00 0.00 90 1018.9
20260906023336 60 18 0.0 0.0 0.00 0.00 0.00 90 1018.9
20260906022827 60 18 0.0 0.0 0.00 0.00 0.00 89 1018.8
20260906022319 61 18 0.0 0.0 0.00 0.00 0.00 89 1018.9
20260906021816 61 18 0.0 0.0 0.00 0.00 0.00 89 1018.9
20260906021322 61 18 0.0 0.0 0.00 0.00 0.00 89 1018.8
20260906020815 61 18 0.0 0.0 0.00 0.00 0.00 89 1018.9
20260906020321 61 18 0.0 0.0 0.00 0.00 0.00 88 1018.9
20260906015812 61 18 0.0 0.0 0.00 0.00 0.00 88 1018.8
20260906015324 62 18 0.0 0.0 0.00 0.00 0.00 87 1018.8
20260906014816 62 18 0.0 0.0 0.00 0.00 0.00 86 1018.8
20260906014327 63 18 0.0 0.0 0.00 0.00 0.00 85 1018.7
20260906013828 63 18 0.0 0.0 0.00 0.00 0.00 84 1018.7
20260906013338 64 18 0.0 0.0 0.00 0.00 0.00 83 1018.7
20260906012851 64 18 0.0 0.0 0.00 0.00 0.00 83 1018.8
20260906012315 64 11 0.0 0.0 0.00 0.00 0.00 84 1018.8
20260906011818 64 11 0.0 0.0 0.00 0.00 0.00 84 1018.7
20260906011342 64 11 0.0 0.0 0.00 0.00 0.00 84 1018.7
20260906010814 65 11 0.0 0.0 0.00 0.00 0.00 84 1018.7
20260906010320 65 11 0.0 0.0 0.00 0.00 0.00 83 1018.6
20260906005828 66 11 0.0 0.0 0.00 0.00 0.00 82 1018.4
20260906005320 66 11 0.0 0.0 0.00 0.00 0.00 82 1018.5
20260906004831 67 11 0.0 0.0 0.00 0.00 0.00 82 1018.6
20260906004322 67 11 0.0 0.9 0.00 0.00 0.00 82 1018.6
20260906003815 67 11 0.0 0.9 0.00 0.00 0.00 81 1018.5
20260906003327 68 8 0.0 0.9 0.00 0.00 0.00 81 1018.6
20260906002820 68 22 0.0 1.7 0.00 0.00 0.00 81 1018.6
20260906002312 69 32 0.0 1.7 0.00 0.00 0.00 81 1018.6
20260906001822 69 345 0.0 0.9 0.00 0.00 0.00 80 1018.5
20260906001312 70 53 0.0 0.9 0.00 0.00 0.00 78 1018.4
20260906000841 71 53 0.0 0.9 0.00 0.00 0.00 76 1018.4
20260906000312 72 270 0.0 0.0 0.00 0.00 0.00 72 1018.4
20260905235817 72 270 0.0 0.0 0.00 0.00 0.00 73 1018.4
20260905235348 73 270 0.0 0.9 0.00 0.00 0.00 72 1018.4
20260905234838 73 265 0.0 0.9 0.00 0.00 0.00 72 1018.4
20260905234327 73 263 0.0 0.9 0.00 0.00 0.00 75 1018.5
20260905233820 72 263 0.0 0.9 0.00 0.00 0.00 75 1018.5
20260905233311 72 263 0.0 0.9 0.00 0.00 0.00 75 1018.4
20260905232823 72 262 0.0 0.9 0.00 0.00 0.00 73 1018.5
20260905232314 72 270 0.9 2.6 0.00 0.00 0.00 72 1018.4
20260905231815 73 282 0.9 3.5 0.00 0.00 0.00 72 1018.3
20260905231348 73 280 1.7 3.5 0.00 0.00 0.00 72 1018.3
20260905230818 74 245 1.7 3.5 0.00 0.00 0.00 71 1018.3
20260905230327 74 260 2.6 4.3 0.00 0.00 0.00 70 1018.3
20260905225838 74 275 1.7 4.3 0.00 0.00 0.00 70 1018.3
20260905225329 75 285 1.7 3.5 0.00 0.00 0.00 68 1018.4
20260905224821 77 247 0.9 2.6 0.00 0.00 0.00 63 1018.2
20260905224311 78 126 0.0 4.3 0.00 0.00 0.00 63 1018.2
20260905223820 78 127 0.0 6.1 0.00 0.00 0.00 62 1018.1
20260905223311 79 144 3.5 6.1 0.00 0.00 0.00 61 1017.9
20260905222815 79 217 0.0 5.2 0.00 0.00 0.00 60 1017.9
20260905222326 79 212 3.5 5.2 0.00 0.00 0.00 58 1017.9
20260905221826 79 220 0.0 7.8 0.00 0.00 0.00 63 1018.0
20260905221319 79 241 4.3 7.8 0.00 0.00 0.00 59 1018.0
20260905220812 81 218 2.6 5.2 0.00 0.00 0.00 57 1018.0
20260905220343 81 272 0.0 0.9 0.00 0.00 0.00 59 1018.0
20260905215814 80 6 0.0 3.5 0.00 0.00 0.00 60 1017.9
20260905215326 81 203 1.7 3.5 0.00 0.00 0.00 57 1017.9
20260905214326 79 219 0.0 6.1 0.00 0.00 0.00 59 1017.9
20260905213815 80 214 0.9 6.1 0.00 0.00 0.00 60 1017.8
20260905213329 79 233 0.0 0.9 0.00 0.00 0.00 61 1017.7
20260905212821 79 65 0.0 1.7 0.00 0.00 0.00 60 1017.6
20260905212313 80 118 0.0 1.7 0.00 0.00 0.00 59 1017.5
20260905211816 80 153 0.0 1.7 0.00 0.00 0.00 63 1017.5
20260905210820 76 54 0.0 0.0 0.00 0.00 0.00 65 1017.6
20260905210313 76 56 0.0 0.0 0.00 0.00 0.00 67 1017.5
20260905205824 76 56 0.0 0.0 0.00 0.00 0.00 65 1017.5
20260905205316 77 56 0.0 1.7 0.00 0.00 0.00 62 1017.5
20260905204827 78 56 0.9 1.7 0.00 0.00 0.00 60 1017.5
20260905204315 80 255 0.0 1.7 0.00 0.00 0.00 60 1017.5
20260905203827 80 222 0.0 1.7 0.00 0.00 0.00 58 1017.5